CAPE
10 11 19 23 24 17 1 0 0 0 0 0 0 2 47 29 21 9 16 56 31 0 0 0 0 0 0 0 0 0 0 0 0 0 0 0 0 0 0 0 0 0 0 0 0
0 10 10 33 23 30 22 0 0 0 0 0 0 1 13 77 47 1 0 16 0 0 0 0 0 0 0 0 0 0 0 0 0 0 0 0 0 0 0 0 0 0 0 0 0
0 4 4 37 34 19 20 10 0 0 0 6 15 0 13 64 59 3 0 20 0 0 0 0 0 0 0 0 0 0 0 0 0 0 0 0 0 0 0 0 0 0 0 0 0
0 0 0 3 43 38 0 4 0 0 0 4 31 25 43 60 11 25 0 50 0 0 0 0 0 0 0 0 0 0 0 0 0 0 0 0 0 0 0 0 0 0 0 0 0
22 0 0 3 11 46 43 16 7 0 0 0 39 60 101 36 2 17 11 89 0 0 0 0 0 0 0 0 0 0 0 0 0 0 0 0 0 0 0 0 0 0 0 0 0
28 18 0 0 9 23 55 45 16 1 0 0 57 77 39 1 14 53 26 4 27 36 17 0 0 0 0 0 0 1 0 0 0 0 0 0 0 0 0 0 0 0 0 0 0
20 25 9 0 0 19 58 76 31 11 0 0 29 99 90 0 26 64 1 28 0 8 26 1 0 0 0 0 0 0 0 0 0 0 0 0 0 0 0 0 0 0 0 0 0
22 14 15 11 2 23 45 83 87 45 0 1 11 86 19 11 39 80 16 12 2 2 0 0 0 0 0 0 0 0 0 0 0 0 0 0 0 0 0 0 0 0 0 0 0
19 10 5 7 24 30 57 102 62 57 17 13 26 77 47 30 32 47 82 26 13 4 0 0 0 0 0 0 1 4 0 0 0 0 0 0 0 0 0 0 0 0 0 0 0
13 14 1 2 12 56 101 145 59 56 23 56 79 98 12 2 38 78 150 110 89 67 52 7 0 0 0 2 1 2 20 6 2 2 7 0 0 0 0 0 0 0 0 0 0
13 18 14 2 0 54 190 179 99 20 27 4 0 0 0 0 103 71 95 108 94 62 3 19 4 0 0 0 0 0 0 0 0 2 0 0 0 0 0 0 0 0 0 0 0
40 19 19 2 21 41 226 149 0 0 11 5 0 0 20 38 43 112 156 157 69 30 60 56 9 0 0 0 0 1 0 0 0 0 0 0 0 0 0 0 0 0 0 0 0
51 53 30 37 28 67 153 54 0 16 6 5 5 32 6 41 4 14 220 23 39 22 47 7 0 20 4 1 3 0 0 0 0 0 0 0 0 0 0 0 0 0 0 0 0
56 62 48 21 46 11 126 116 3 24 6 6 20 1 14 26 7 11 1 37 23 21 11 54 4 18 2 0 0 0 0 0 1 2 0 0 0 0 0 0 0 0 0 0 0
39 66 102 121 2 57 16 109 13 90 14 0 4 21 44 10 0 0 46 6 2 10 3 7 21 22 25 1 0 0 0 0 0 0 0 0 2 0 0 0 0 0 0 0 0
39 88 109 123 87 7 114 136 62 74 26 0 5 1 10 13 5 23 4 17 2 44 44 14 14 46 0 24 5 0 1 21 19 4 1 0 0 0 0 0 0 0 0 0 0
7 91 111 123 5 55 170 118 35 32 1 0 2 5 0 9 4 11 9 8 1 6 10 13 21 21 18 32 17 12 13 5 11 7 0 0 0 0 0 0 0 0 0 0 0
100 58 79 7 0 14 219 66 83 1 0 0 1 8 1 5 3 5 9 4 1 0 0 11 6 19 11 12 3 9 2 3 1 0 0 0 0 0 0 0 0 0 0 0 0
142 25 8 15 0 1 33 0 17 0 0 2 4 2 6 5 0 5 0 5 5 0 0 1 0 2 10 29 23 26 15 0 0 0 0 0 0 0 0 0 0 0 0 0 0
49 9 17 0 0 75 12 0 0 0 0 0 0 8 1 5 0 1 1 0 1 0 0 0 0 8 10 58 14 15 0 0 0 0 0 0 0 0 0 0 0 0 0 0 0
10 1 1 0 36 34 6 0 0 0 0 0 0 2 0 3 0 0 0 1 0 0 2 1 1 0 5 7 2 1 5 1 0 0 0 0 0 0 0 0 0 0 0 0 0
8 0 14 94 0 0 0 0 0 0 0 0 0 0 0 0 4 6 0 0 0 0 10 3 0 0 0 0 1 1 2 1 0 0 0 0 0 0 0 0 0 0 0 0 0
0 7 15 4 0 0 0 0 0 0 0 0 0 0 0 0 1 1 0 0 26 1 4 0 0 1 4 0 6 3 0 4 0 0 0 0 0 0 0 0 0 0 0 0 0
2 0 1 0 0 0 0 0 0 1 0 0 0 0 5 1 0 12 1 0 0 54 24 3 1 8 2 0 0 7 0 2 5 1 0 0 0 0 0 0 0 0 0 0 0
0 0 0 0 0 0 0 0 0 0 0 0 0 0 0 0 0 5 0 0 0 0 4 0 0 5 2 0 0 0 7 27 19 0 6 0 0 0 0 0 0 0 0 0 0
0 0 0 0 0 0 0 0 0 0 0 0 0 0 0 0 0 0 0 0 0 0 0 0 0 0 0 0 0 0 0 0 10 0 20 0 0 0 0 0 0 0 0 0 0
0 0 0 0 0 0 0 0 0 0 0 0 0 0 0 0 0 0 0 0 0 0 0 0 0 0 0 0 0 1 0 0 0 0 0 0 0 0 0 0 0 0 0 0 0
CIN
-7 -5 -2 -2 -1 -7 -0 -0 -0 -0 -0 -0 -17 -51 -22 -19 -10 -4 -16 -49 -39 -0 -0 -0 -0 -0 -0 -0 -0 -0 -0 -0 -0 -0 -0 -0 -0 -0 -0 -0 -0 -0 -0 -0 -0
-1 -6 -5 -0 -3 -2 -6 -0 -0 -0 -0 -0 -0 -49 -35 -5 -1 -0 -0 -81 -0 -0 -0 -0 -0 -0 -0 -0 -0 -0 -0 -0 -0 -0 -0 -0 -0 -0 -0 -0 -0 -0 -0 -0 -0
-0 -11 -7 -1 -0 -4 -5 -11 -0 -0 -0 -14 -12 -0 -32 -18 -0 -0 -0 -36 -9 -0 -0 -0 -0 -0 -0 -0 -0 -0 -0 -0 -0 -0 -0 -0 -0 -0 -0 -0 -0 -0 -0 -0 -0
-0 -0 -0 -4 -1 -0 -0 -15 -2 -0 -0 -33 -16 -16 -18 -6 -1 -19 -0 -74 -0 -0 -0 -0 -0 -0 -0 -0 -0 -0 -0 -0 -0 -0 -0 -0 -0 -0 -0 -0 -0 -0 -0 -0 -0
-0 -0 -0 -18 -4 -0 -0 -8 -24 -0 -0 -2 -21 -7 -0 -0 -1 -57 -59 -54 -0 -0 -0 -0 -0 -5 -0 -0 -0 -0 -0 -0 -0 -0 -0 -0 -0 -0 -0 -0 -0 -0 -0 -0 -0
-1 -1 -0 -0 -12 -5 -0 -0 -12 -18 -0 -0 -25 -5 -0 -0 -2 -12 -53 -37 -43 -56 -55 -0 -0 -6 -0 -0 -0 -4 -0 -0 -0 -0 -0 -0 -0 -0 -0 -0 -0 -0 -0 -0 -0
-2 -2 -1 -1 -0 -5 -1 -1 -10 -24 -0 -0 -26 -2 -0 -0 -2 -22 -3 -45 -3 -63 -28 -2 -0 -0 -5 -0 -0 -0 -0 -0 -0 -0 -0 -0 -0 -0 -0 -0 -0 -0 -0 -0 -0
-1 -3 -3 -3 -2 -3 -1 -2 -5 -19 -0 -7 -6 -2 -0 -10 -7 -2 -15 -30 -53 -57 -0 -0 -0 -0 -0 -0 -0 -4 -0 -0 -0 -0 -0 -0 -0 -0 -0 -0 -0 -0 -0 -0 -0
-1 -4 -4 -7 -2 -12 -1 -1 -8 -18 -31 -30 -17 -0 -0 -10 -14 -6 -6 -19 -46 -47 -0 -0 -0 -0 -0 -13 -9 -13 -0 -0 -0 -0 -0 -0 -0 -0 -0 -0 -0 -0 -0 -0 -0
-2 -1 -13 -16 -6 -16 -1 -1 -10 -9 -11 -9 -3 -0 -1 -1 -1 -2 -3 -6 -9 -13 -10 -12 -0 -0 -0 -39 -0 -3 -3 -10 -4 -8 -22 -0 -0 -0 -0 -0 -0 -0 -0 -0 -0
-2 -0 -2 -15 -0 -40 -0 -0 -0 -0 -1 -10 -0 -0 -2 -3 -18 -0 -8 -0 -0 -6 -7 -3 -0 -0 -0 -0 -0 -0 -0 -8 -0 -1 -0 -0 -0 -0 -0 -0 -0 -0 -0 -0 -0
-1 -1 -0 -4 -10 -2 -0 -0 -1 -1 -0 -4 -2 -0 -10 -16 -4 -0 -4 -0 -0 -0 -0 -0 -0 -0 -0 -0 -0 -0 -0 -0 -0 -0 -0 -0 -0 -0 -0 -0 -0 -0 -0 -0 -0
-2 -1 -0 -8 -17 -2 -2 -2 -0 -8 -1 -0 -20 -1 -12 -9 -9 -37 -0 -0 -0 -1 -0 -1 -0 -0 -3 -0 -0 -0 -0 -0 -0 -0 -0 -0 -0 -0 -0 -0 -0 -0 -0 -0 -0
-3 -2 -1 -12 -7 -11 -3 -1 -40 -35 -9 -0 -0 -0 -6 -3 -5 -25 -11 -7 -3 -0 -1 -0 -3 -3 -0 -0 -0 -0 -0 -0 -0 -0 -0 -0 -0 -0 -0 -0 -0 -0 -0 -0 -0
-4 -2 -1 -1 -0 -0 -4 -1 -18 -12 -13 -0 -0 -3 -3 -5 -0 -0 -20 -4 -0 -0 -2 -5 -0 -5 -22 -0 -0 -0 -0 -0 -2 -0 -0 -0 -0 -0 -0 -0 -0 -0 -0 -0 -0
-7 -1 -3 -0 -1 -2 -3 -3 -13 -9 -22 -0 -3 -2 -0 -0 -5 -10 -5 -1 -0 -0 -1 -31 -7 -6 -0 -2 -12 -0 -0 -5 -1 -0 -1 -0 -0 -0 -0 -0 -0 -0 -0 -0 -0
-0 -3 -0 -0 -0 -2 -5 -7 -11 -34 -3 -0 -0 -0 -0 -0 -2 -0 -0 -2 -0 -5 -5 -1 -4 -7 -7 -2 -3 -3 -2 -0 -1 -15 -0 -0 -0 -0 -0 -0 -0 -0 -0 -0 -0
-1 -3 -0 -0 -0 -9 -0 -10 -4 -26 -0 -0 -0 -0 -0 -1 -0 -0 -0 -2 -0 -0 -0 -7 -6 -1 -6 -6 -1 -0 -2 -5 -4 -1 -0 -0 -0 -0 -0 -0 -0 -0 -0 -0 -0
-0 -1 -0 -0 -0 -12 -0 -0 -23 -0 -0 -0 -0 -3 -0 -0 -1 -1 -0 -0 -0 -0 -0 -0 -2 -1 -5 -4 -9 -0 -16 -0 -0 -0 -0 -0 -0 -0 -0 -0 -0 -0 -0 -0 -0
-0 -0 -0 -0 -0 -0 -5 -0 -0 -0 -0 -0 -0 -0 -1 -0 -0 -1 -1 -0 -2 -0 -0 -0 -0 -1 -8 -11 -25 -37 -0 -7 -0 -0 -0 -0 -0 -0 -0 -0 -0 -0 -0 -0 -0
-0 -0 -2 -0 -0 -5 -1 -0 -0 -0 -0 -0 -0 -0 -0 -0 -0 -0 -0 -0 -0 -0 -0 -0 -0 -0 -0 -11 -0 -4 -1 -0 -0 -0 -0 -0 -0 -0 -0 -0 -0 -0 -0 -0 -0
-0 -0 -0 -4 -0 -0 -0 -0 -0 -0 -0 -0 -0 -0 -0 -0 -0 -0 -0 -0 -0 -0 -0 -0 -0 -0 -0 -1 -3 -1 -0 -0 -0 -0 -0 -0 -0 -0 -0 -0 -0 -0 -0 -0 -0
-0 -0 -0 -0 -0 -0 -0 -0 -0 -1 -0 -0 -0 -0 -0 -0 -0 -1 -0 -0 -25 -3 -1 -0 -0 -7 -2 -3 -0 -0 -0 -0 -0 -0 -0 -0 -0 -0 -0 -0 -0 -0 -0 -0 -0
-0 -0 -0 -0 -0 -0 -0 -0 -0 -0 -0 -0 -0 -0 -4 -1 -0 -29 -9 -0 -0 -6 -6 -4 -3 -52 -33 -0 -0 -0 -0 -2 -0 -2 -0 -0 -0 -0 -0 -0 -0 -0 -0 -0 -0
-0 -0 -0 -0 -0 -0 -0 -0 -0 -0 -0 -0 -0 -0 -0 -1 -0 -24 -0 -0 -0 -0 -13 -1 -0 -43 -47 -0 -0 -0 -0 -6 -13 -0 -10 -0 -0 -0 -0 -0 -0 -0 -0 -0 -0
-0 -0 -0 -0 -0 -0 -0 -0 -0 -0 -0 -0 -0 -0 -0 -0 -0 -0 -0 -0 -0 -0 -19 -0 -0 -0 -0 -0 -0 -0 -0 -22 -50 -0 -26 -0 -0 -0 -0 -0 -0 -0 -0 -0 -0
-0 -0 -0 -0 -0 -0 -0 -0 -0 -0 -0 -0 -0 -0 -0 -0 -0 -0 -0 -0 -0 -0 -0 -0 -0 -0 -0 -0 -0 -31 -0 -0 -0 -0 -0 -0 -0 -0 -0 -0 -0 -0 -0 -0 -0
Wind_Speed
39 37 36 35 35 35 35 35 34 32 31 31 29 29 27 25 24 25 30 22 21 23 24 24 23 22 21 21 19 20 23 25 27 26 22 16 19 16 18 17 17 16 19 13 9
38 38 37 36 35 35 35 35 35 34 33 32 30 29 28 23 28 37 25 23 23 21 23 24 25 22 24 22 21 22 26 25 25 23 22 17 20 18 19 18 17 15 14 9 8
39 37 37 36 35 34 34 34 34 34 33 32 30 28 27 23 35 40 27 25 22 21 23 25 25 26 29 27 23 24 31 27 28 22 22 26 22 22 21 24 18 14 9 7 8
39 39 38 37 36 34 34 33 32 33 33 32 30 28 25 24 43 27 28 22 22 21 22 24 24 27 27 30 26 33 31 28 28 24 25 27 27 25 21 23 20 20 6 6 9
40 39 38 38 37 35 34 33 33 32 33 32 30 24 24 36 42 22 17 17 20 22 25 26 29 29 34 28 30 32 32 31 27 27 27 29 29 28 27 22 19 18 12 8 10
42 41 40 38 37 36 35 33 33 32 32 32 30 23 29 45 29 25 22 16 22 23 26 24 26 28 32 35 34 30 30 35 30 30 30 32 32 32 25 23 23 18 18 13 12
42 42 42 41 39 36 34 33 32 31 30 31 30 27 35 42 21 25 24 25 23 22 26 25 25 27 28 34 33 31 39 34 32 31 31 29 41 36 31 30 26 20 18 16 13
43 42 42 42 40 38 34 31 30 29 28 29 30 29 41 30 30 25 25 26 22 21 22 21 22 25 28 31 31 35 37 46 34 29 30 28 49 33 28 28 28 25 21 18 15
46 44 43 42 41 39 36 32 28 27 26 25 30 32 41 29 35 28 26 27 26 22 22 21 23 30 28 30 37 36 47 44 44 33 32 30 43 33 31 35 30 27 24 22 16
48 46 45 44 44 41 36 32 28 26 25 25 29 33 35 37 32 30 28 23 26 26 30 30 28 34 31 33 43 44 44 41 42 34 31 36 42 37 37 33 33 31 32 33 32
50 49 46 45 44 42 36 30 30 32 33 35 31 38 28 30 28 29 27 25 24 29 39 35 41 46 44 38 34 33 38 43 39 30 33 39 41 41 39 40 40 37 34 35 33
49 49 48 46 45 43 39 41 38 29 35 36 33 30 29 25 30 34 25 32 32 38 34 38 47 45 37 34 37 39 39 36 36 28 32 39 49 47 46 43 43 43 40 37 33
46 48 49 47 45 43 46 46 32 21 32 39 38 30 35 29 34 31 31 34 37 40 37 44 46 40 37 35 36 37 39 36 36 37 37 42 55 52 54 53 52 52 47 40 38
45 46 49 48 46 47 51 41 33 30 36 37 42 38 30 31 40 30 29 28 34 43 41 40 41 35 37 40 35 41 33 30 29 29 34 30 54 46 43 44 37 38 40 38 37
45 47 49 50 49 51 50 39 31 30 50 32 35 25 29 32 27 36 28 35 36 30 35 36 35 35 37 38 31 35 26 33 33 34 39 39 38 37 27 37 37 39 37 33 33
47 46 45 49 50 51 43 38 34 49 50 33 32 37 34 37 34 25 30 34 33 33 27 39 31 35 40 34 33 31 33 31 33 34 43 36 30 42 31 32 33 30 30 32 32
53 50 47 47 58 48 43 43 54 61 31 37 38 37 39 37 36 33 34 42 39 42 38 36 38 33 30 37 32 31 29 40 41 43 49 27 25 27 25 27 24 23 21 21 22
37 42 50 52 53 50 49 51 63 49 46 31 34 37 42 35 40 36 37 40 36 34 33 41 39 32 29 35 37 36 33 40 47 44 41 29 38 32 26 28 24 22 22 20 16
33 42 50 57 57 54 64 58 49 47 38 35 31 38 40 41 34 33 37 43 38 34 35 37 32 24 29 31 28 33 38 29 30 29 36 33 32 33 33 31 24 21 17 14 14
39 41 55 58 61 60 60 66 47 36 31 34 37 37 41 41 40 38 35 30 34 41 34 26 30 30 25 25 27 29 22 30 28 38 45 39 36 35 22 19 16 14 11 15 13
36 44 43 53 47 52 71 44 34 37 35 33 32 37 37 40 40 40 39 30 29 23 27 30 25 22 17 27 26 24 28 30 29 28 36 38 32 25 23 12 14 12 13 14 17
35 39 40 37 48 39 55 48 34 27 34 33 26 29 32 31 35 35 37 31 24 26 35 30 30 30 23 26 23 24 25 25 29 30 31 31 35 23 19 13 12 15 16 18 20
32 27 31 23 47 44 35 36 32 29 26 26 28 27 22 28 31 34 31 26 22 24 29 32 38 35 33 28 23 28 28 30 34 26 31 36 38 28 18 14 16 19 20 22 24
27 30 31 30 32 43 44 35 32 31 25 24 24 23 23 23 19 23 22 24 23 25 24 27 35 37 32 24 24 30 30 29 30 29 29 34 36 35 32 33 33 32 33 33 35
30 24 30 36 37 37 38 35 30 29 29 23 25 27 22 25 25 23 18 20 21 20 22 26 37 38 39 33 25 28 33 34 38 36 33 42 44 43 37 36 36 37 39 38 41
34 28 27 31 29 32 33 37 34 30 31 33 24 21 21 22 23 18 19 20 23 24 26 27 37 35 41 37 34 39 39 40 44 43 39 48 54 43 41 38 40 41 37 42 45
26 25 27 31 34 28 34 38 32 27 24 24 20 16 16 14 13 10 11 12 15 19 23 26 32 36 45 37 38 45 48 43 43 43 42 52 57 44 48 44 42 45 50 50 43
Wind_Direction
261 261 261 261 261 261 261 260 262 263 264 264 266 268 272 274 278 276 269 279 287 290 292 295 295 293 297 296 302 305 292 291 292 295 301 316 310 325 321 319 320 325 323 348 26
261 260 260 260 260 260 260 260 260 261 263 264 265 266 269 272 273 267 273 280 281 292 288 289 287 287 285 289 292 286 283 288 303 305 304 316 307 312 315 310 312 318 329 354 6
260 259 258 258 259 259 259 260 260 259 262 263 264 265 267 270 271 267 267 269 276 280 286 285 287 285 277 277 281 284 274 286 300 301 303 300 305 306 307 301 308 306 316 326 333
257 257 257 257 257 257 258 258 260 258 258 262 262 264 264 261 259 277 272 257 268 276 277 281 281 277 277 273 277 276 278 282 289 301 297 296 298 298 300 300 318 315 310 306 314
256 255 256 255 255 255 255 256 257 259 256 258 259 259 260 255 255 284 285 260 264 266 269 270 271 274 270 278 274 274 276 281 287 290 292 293 292 293 296 302 309 312 314 301 300
255 253 253 253 253 253 253 254 254 256 257 253 256 252 258 255 261 265 266 272 265 260 263 267 271 273 276 275 272 279 278 276 281 284 288 286 286 286 296 298 297 302 298 299 293
254 253 251 251 251 251 251 252 252 252 258 252 254 251 255 255 270 256 256 262 265 264 261 267 272 270 276 273 278 277 275 277 275 280 281 290 278 278 284 288 294 294 297 294 290
253 251 250 248 249 248 248 249 250 251 255 256 252 250 256 260 262 255 256 255 262 266 264 266 272 271 271 278 275 271 272 269 273 278 280 278 271 284 285 281 283 288 291 291 288
251 250 249 247 246 245 245 245 248 251 251 258 250 249 253 260 250 252 253 255 251 259 264 268 268 264 269 268 268 267 266 268 272 273 278 270 275 284 282 278 277 281 285 287 286
249 248 247 246 244 243 241 241 245 250 249 255 251 248 253 248 251 245 249 252 253 249 258 256 259 256 256 258 262 266 270 268 272 278 267 270 272 277 277 281 277 281 282 282 283
247 245 244 244 242 239 235 235 237 243 238 238 248 243 254 254 250 245 240 242 251 245 246 248 249 249 250 257 263 274 280 276 277 278 275 272 274 273 277 274 274 276 279 280 283
245 243 241 241 239 235 231 232 227 250 240 241 249 246 250 251 251 245 235 240 245 246 245 249 247 250 256 256 257 262 272 279 279 285 281 277 273 275 274 274 275 274 275 278 282
243 241 238 236 236 232 229 229 223 245 247 241 242 249 239 248 249 246 234 239 248 243 242 246 253 252 250 251 252 259 259 270 279 282 281 282 274 275 271 270 271 270 273 276 277
240 238 234 232 232 228 229 224 222 236 249 244 235 245 247 243 249 250 244 248 248 243 241 249 248 251 245 245 247 256 258 265 274 281 280 287 275 278 279 272 274 275 274 274 276
240 236 231 226 227 224 225 219 213 229 243 237 229 246 238 236 249 244 245 245 251 250 242 246 241 243 244 245 243 257 262 263 272 277 278 278 284 286 291 278 278 279 279 276 277
235 232 230 225 226 226 222 209 212 229 239 234 227 227 230 234 243 249 239 245 253 252 251 247 255 248 246 249 250 259 267 266 269 273 269 276 280 281 287 285 283 285 284 281 280
230 226 226 220 219 219 213 206 220 229 228 230 224 222 224 232 235 240 239 239 246 245 247 250 250 251 250 246 251 252 251 260 262 260 264 278 272 265 291 291 295 294 296 300 301
230 227 223 221 216 217 212 216 225 224 223 228 224 222 224 225 234 237 241 241 244 248 251 251 244 239 245 246 247 241 246 256 258 260 265 271 272 285 290 293 298 299 291 300 305
229 224 222 215 213 218 214 218 219 211 213 212 216 219 226 226 234 233 239 242 241 240 246 253 255 250 248 248 242 244 245 259 266 270 267 268 275 284 287 283 294 296 299 299 305
217 219 214 208 207 215 213 220 224 220 208 202 221 220 221 221 228 228 236 240 238 240 244 261 269 259 248 248 250 244 245 250 260 256 260 268 272 271 289 292 299 312 311 303 307
214 209 212 205 211 210 211 213 219 219 202 214 217 224 228 221 227 233 241 250 239 238 240 249 269 267 258 247 239 234 240 255 261 266 261 266 271 287 280 280 301 318 330 316 309
205 207 199 203 206 211 208 212 214 211 210 224 222 231 221 221 227 236 240 247 240 237 241 244 254 254 262 261 257 248 252 250 252 256 265 269 264 280 294 298 314 315 316 314 309
206 205 198 212 206 210 202 211 212 201 205 209 219 231 223 222 236 239 242 254 241 237 237 238 246 252 256 263 259 258 255 259 261 273 262 262 266 274 286 305 311 318 315 316 316
209 195 198 211 213 204 199 204 204 214 220 221 214 217 209 209 241 229 235 246 251 242 248 241 251 249 253 266 264 257 252 253 257 264 265 262 264 264 277 293 298 300 301 304 305
206 205 206 205 202 195 198 203 196 207 215 206 214 211 208 225 235 238 240 244 249 249 247 253 252 253 257 262 275 266 255 253 254 263 268 266 269 271 281 290 296 299 298 300 297
201 205 206 197 196 201 206 202 199 204 208 213 214 206 218 227 236 226 238 246 250 251 251 258 258 260 260 266 270 262 263 264 260 265 271 271 268 279 283 289 293 295 298 297 297
211 212 205 199 198 209 203 198 198 201 218 212 181 196 222 224 245 232 248 258 265 254 254 256 259 260 260 267 268 264 262 269 270 269 272 267 265 282 282 289 293 293 292 292 297